Voltar ao catálogo

DELTA 1 DEB

AtivoLEO
NORAD 2707·DEBRIS·🇺🇸 United States

Lançado Jan 26, 1967 de Vandenberg Space Force Base

Loading…

Próximas Passagens (próximas 24 horas)

TLE

AtualizadoSource: Space-Track

Época: Sep 13, 2026, 17:27 UTC

1 02707U 67006D   26256.72744337 -.00000035  00000-0  60848-4 0  9992
2 02707 101.9058 231.8316 0148779 188.8117 348.4913 12.79411111783677

Acompanhe DELTA 1 DEB em tempo real com AllMySat

Download on the App Store